Simultaneous Nadir Overpasses (SNOs) Predictions

Prediction of SNOs between FY3D and AQUA Satellite Orbit:

Table of predicted SNOs for the next 14.0 days since TLE Epoch: 10/1/2022
Index Date (FY3D) Time (FY3D) Lat,Lon (FY3D) SZA (FY3D ) Date (AQUA) Time (AQUA) Lat,Lon (AQUA) SZA (AQUA ) Distance(km) Time Diff (sec)
1 10/02/2022 17:46:50 76.74, -99.25 80.64 10/02/2022 17:46:58 76.75, -99.31 80.65 1.75 8
2 10/02/2022 18:37:17 -75.91, 71.12 100.28 10/02/2022 18:36:06 -75.92, 71.07 100.27 1.30 71
3 10/05/2022 08:23:14 77.08, 40.31 82.03 10/05/2022 08:23:55 77.09, 40.25 82.03 1.72 41
4 10/05/2022 09:13:42 -76.31,-149.33 98.84 10/05/2022 09:13:04 -76.32,-149.38 98.83 1.29 38
5 10/07/2022 22:59:40 77.50, 179.40 83.51 10/07/2022 23:00:53 77.50, 179.43 83.49 0.79 73
6 10/07/2022 23:50:10 -76.84, -10.40 97.26 10/07/2022 23:50:04 -76.84, -10.35 97.26 1.24 6
7 10/10/2022 14:26:32 -77.10, 129.48 95.98 10/10/2022 14:26:58 -77.10, 129.49 95.98 0.20 26
8 10/10/2022 15:16:59 76.27, -59.95 83.11 10/10/2022 15:16:07 76.27, -59.96 83.11 0.36 52
9 10/13/2022 05:02:55 -77.44, -91.09 94.60 10/13/2022 05:03:52 -77.43, -91.03 94.62 1.63 57



Historial Predications of SNOs between FY3D and AQUA
